Location: Quaker Farms
(41.4276°N, 73.1557°W)
Time: 02:23:06
(UTC+00:00)

Altair - Pass Details

Date: 23 June 2021
Orbit: 1501 x 1682 km, 47.2° (Epoch: 23 July)

Event Time Altitude Azimuth Distance (km) Brightness Sun altitude
Rises 22:08:20 0° 295° (WNW) 4,773 11.4 23.7°
Reaches altitude 10° 22:11:23 10° 295° (WNW) 3,811 11.3 23.2°
Maximum altitude 22:21:11 89° 205° (SSW) 1,644 8.1 21.4°
Drops below altitude 10° 22:31:18 10° 119° (ESE) 3,924 9.1 19.5°
Sets 22:34:29 0° 119° (ESE) 4,920 9.6 18.9°
